Location: Michelbach Markt
(48.1000°N, 15.7500°E)
Time: 03:49:13
(UTC+01:00)

ISS - Pass Details

Date: 08 December 2021
Orbit: 413 x 422 km, 51.6° (Epoch: 27 January)

Event Time Altitude Azimuth Distance (km) Brightness Sun altitude
Rises 17:52:09 0° 284° (WNW) 2,385 1.2 -17.2°
Reaches altitude 10° 17:54:59 10° 259° (WSW) 1,512 0.4 -17.7°
Maximum altitude 17:56:53 14° 225° (SW) 1,271 -0.5 -18.0°
Drops below altitude 10° 17:58:46 10° 190° (S) 1,502 -0.7 -18.3°
Enters shadow 18:02:46 -4° 159° (SSE) 2,795 0.4 -19.0°
